Home   Weather   Wainwright   Past weeks

Flag for USA Past Weather in Wainwright, Alaska, USA — Yesterday and Last 2 Weeks

25 °F

Snow. Ice fog.

Feels Like: 10 °F
Forecast: 28 / 32 °F
Wind: 23 mph from Southwest

Location: Wainwright Distant Early Warning

Current Time: Oct 21, 2016 at 12:08:56 PM

Latest Report: Oct 21, 2016 at 10:53 AM

Visibility: 0 mi

Pressure: 29.74 "Hg

Humidity: 96%

Dew Point: 24 °F

Location of WainwrightLocation

Past Weather in Wainwright — Graph


Wainwright Temperature Yesterday

Maximum temperature yesterday: 30 °F (at 12:53 AM)
Minimum temperature yesterday: 28 °F (at 4:53 AM)
Average temperature yesterday: 29 °F

High & Low Weather Summary for the Past Weeks

High39 °F (Oct 10, 1:53 AM)100% (Oct 6, 10:00 AM)30.30 "Hg (Oct 6, 10:00 AM)
Low14 °F (Oct 16, 9:53 AM)64% (Oct 20, 6:53 PM)29.62 "Hg (Oct 19, 10:00 PM)
Average30 °F88%29.95 "Hg
* Reported Oct 6 10:00 AM — Oct 21 10:53 AM, Wainwright, Weather by CustomWeather, © 2016

Note: Actual official high and low records may vary slightly from our data, if they occured in-between our weather recording intervals... More about our weather records


Wainwright Weather History for the Previous 24 Hours

Scroll right to see more
Time TempWeatherWind HumidityBarometerVisibility
10:53 AM
Fri, Oct 21
25 °FSnow. Ice fog.23 mph96%29.74 "Hg0 mi
9:53 AM25 °FOvercast.17 mph92%29.76 "Hg10 mi
8:53 AM29 °FOvercast.14 mph72%29.78 "Hg10 mi
7:53 AM27 °FMostly cloudy.9 mph81%29.80 "Hg10 mi
6:53 AM27 °FLight snow. Mostly cloudy.14 mph78%29.80 "Hg3 mi
5:57 AM26 °FLight snow. Ice fog.8 mph84%29.81 "Hg3 mi
4:53 AM26 °FMostly cloudy.14 mph77%29.82 "Hg9 mi
3:53 AM27 °FOvercast.18 mph72%29.82 "Hg10 mi
2:53 AM26 °FOvercast.20 mph74%29.81 "Hg10 mi
1:53 AM27 °FOvercast.20 mph72%29.81 "Hg10 mi
12:53 AM28 °FOvercast.18 mph72%29.80 "Hg10 mi
11:53 PM
Thu, Oct 20
29 °FMostly cloudy.18 mph72%29.79 "Hg10 mi
11:03 PM28 °FLight snow. Ice fog.18 mph93%29.78 "Hg1 mi
10:56 PM28 °FLight snow. Ice fog.6 mph96%29.78 "Hg3 mi
9:53 PM30 °FMostly cloudy.9 mph66%29.78 "Hg10 mi
8:53 PM28 °FPassing clouds.7 mph69%29.78 "Hg10 mi
7:53 PM28 °FPassing clouds.8 mph66%29.78 "Hg10 mi
6:53 PM29 °FMostly cloudy.14 mph64%29.79 "Hg10 mi
5:53 PM28 °FOvercast.14 mph66%29.78 "Hg10 mi
4:53 PM28 °FOvercast.21 mph69%29.77 "Hg10 mi
3:53 PM28 °FOvercast.18 mph72%29.75 "Hg10 mi
2:53 PM30 °FMostly cloudy.20 mph72%29.73 "Hg10 mi
2:02 PM28 °FLight snow. Ice fog.15 mph89%29.72 "Hg1 mi
2:00 PM29 °FLight snow. Ice fog.18 mph85%29.72 "Hg1 mi
12:56 PM29 °FCloudy.13 mph85%29.71 "Hg10 mi
Weather by CustomWeather, © 2016

See weather overviewHow to use our weather pages